Time,TemperatureF,DewpointF,PressureIn,WindDirection,WindDirectionDegrees,WindSpeedMPH,WindSpeedGustMPH,Humidity,HourlyPrecipIn,Conditions,Clouds,dailyrainin,SoftwareType,DateUTC
2013-02-07 00:01:00,31.0,14.0,-100.00,SW,226,11.0,17.0,49,0.00,,,-99.99,,2013-02-07 00:01:00,
2013-02-07 00:11:00,31.0,14.0,-100.00,SW,226,14.0,24.0,47,0.00,,,-99.99,,2013-02-07 00:11:00,
2013-02-07 00:21:00,31.0,12.0,-100.00,SW,233,17.0,25.0,45,0.00,,,-99.99,,2013-02-07 00:21:00,
2013-02-07 00:31:00,31.0,12.0,-100.00,SW,234,19.0,27.0,44,0.00,,,-99.99,,2013-02-07 00:31:00,
2013-02-07 00:41:00,31.0,13.0,-100.00,SW,234,18.0,24.0,46,0.00,,,-99.99,,2013-02-07 00:41:00,
2013-02-07 00:51:00,31.0,13.0,-100.00,SW,229,19.0,26.0,47,0.00,,,-99.99,,2013-02-07 00:51:00,
2013-02-07 01:01:00,31.0,13.0,-100.00,SW,229,21.0,29.0,47,0.00,,,-99.99,,2013-02-07 01:01:00,
2013-02-07 01:11:00,30.0,13.0,-100.00,SW,227,20.0,29.0,48,0.00,,,-99.99,,2013-02-07 01:11:00,
2013-02-07 01:21:00,30.0,12.0,-100.00,SW,226,16.0,23.0,48,0.00,,,-99.99,,2013-02-07 01:21:00,
2013-02-07 01:31:00,30.0,12.0,-100.00,SW,227,16.0,24.0,48,0.00,,,-99.99,,2013-02-07 01:31:00,
2013-02-07 01:41:00,30.0,12.0,-100.00,SW,234,15.0,23.0,48,0.00,,,-99.99,,2013-02-07 01:41:00,
2013-02-07 01:52:00,29.0,12.0,-100.00,WSW,241,14.0,22.0,47,0.00,,,-99.99,,2013-02-07 01:52:00,
2013-02-07 02:01:00,30.0,12.0,-100.00,WSW,241,17.0,24.0,47,0.00,,,-99.99,,2013-02-07 02:01:00,
2013-02-07 02:11:00,29.0,12.0,-100.00,WSW,240,17.0,22.0,47,0.00,,,-99.99,,2013-02-07 02:11:00,
2013-02-07 02:21:00,29.0,12.0,-100.00,SW,226,17.0,24.0,49,0.00,,,-99.99,,2013-02-07 02:21:00,
2013-02-07 02:31:00,29.0,13.0,-100.00,SW,223,17.0,25.0,49,0.00,,,-99.99,,2013-02-07 02:31:00,
2013-02-07 02:41:00,29.0,13.0,-100.00,SW,223,17.0,25.0,49,0.00,,,-99.99,,2013-02-07 02:41:00,
2013-02-07 02:51:00,29.0,13.0,-100.00,SW,223,17.0,25.0,49,0.00,,,-99.99,,2013-02-07 02:51:00,
2013-02-07 03:02:00,29.0,12.0,-100.00,SW,230,19.0,26.0,49,0.00,,,-99.99,,2013-02-07 03:02:00,
2013-02-07 03:11:00,28.0,12.0,-100.00,SW,234,19.0,27.0,50,0.00,,,-99.99,,2013-02-07 03:11:00,
2013-02-07 03:21:00,28.0,12.0,-100.00,SW,236,17.0,24.0,51,0.00,,,-99.99,,2013-02-07 03:21:00,
2013-02-07 03:31:00,27.0,13.0,-100.00,SW,236,17.0,21.0,53,0.00,,,-99.99,,2013-02-07 03:31:00,
2013-02-07 03:41:00,27.0,13.0,-100.00,SW,234,16.0,21.0,54,0.00,,,-99.99,,2013-02-07 03:41:00,
2013-02-07 03:51:00,27.0,13.0,-100.00,SW,230,16.0,22.0,54,0.00,,,-99.99,,2013-02-07 03:51:00,
2013-02-07 04:01:00,27.0,13.0,-100.00,SW,227,13.0,19.0,56,0.00,,,-99.99,,2013-02-07 04:01:00,
2013-02-07 04:11:00,27.0,13.0,-100.00,SW,232,12.0,17.0,56,0.00,,,-99.99,,2013-02-07 04:11:00,
2013-02-07 04:22:00,27.0,14.0,-100.00,SW,234,17.0,26.0,57,0.00,,,-99.99,,2013-02-07 04:22:00,
2013-02-07 04:31:00,27.0,15.0,-100.00,SW,232,19.0,26.0,58,0.00,,,-99.99,,2013-02-07 04:31:00,
2013-02-07 04:41:00,27.0,15.0,-100.00,SW,232,20.0,27.0,59,0.00,,,-99.99,,2013-02-07 04:41:00,
2013-02-07 04:52:00,27.0,15.0,-100.00,SW,223,21.0,27.0,60,0.00,,,-99.99,,2013-02-07 04:52:00,
2013-02-07 05:02:00,26.0,15.0,-100.00,SW,226,19.0,28.0,62,0.00,,,-99.99,,2013-02-07 05:02:00,
2013-02-07 05:11:00,26.0,15.0,-100.00,SW,229,19.0,29.0,62,0.00,,,-99.99,,2013-02-07 05:11:00,
2013-02-07 05:21:00,26.0,15.0,-100.00,SW,230,21.0,30.0,64,0.00,,,-99.99,,2013-02-07 05:21:00,
2013-02-07 05:32:00,26.0,15.0,-100.00,SW,226,24.0,36.0,64,0.00,,,-99.99,,2013-02-07 05:32:00,
2013-02-07 05:42:00,26.0,15.0,-100.00,SW,224,22.0,30.0,65,0.00,,,-99.99,,2013-02-07 05:42:00,
2013-02-07 05:52:00,25.0,15.0,-100.00,SW,224,18.0,31.0,66,0.00,,,-99.99,,2013-02-07 05:52:00,
2013-02-07 06:02:00,25.0,15.0,-100.00,SW,224,18.0,23.0,64,0.00,,,-99.99,,2013-02-07 06:02:00,
2013-02-07 06:11:00,25.0,15.0,-100.00,SW,223,17.0,23.0,65,0.00,,,-99.99,,2013-02-07 06:11:00,
2013-02-07 06:22:00,25.0,15.0,-100.00,SW,217,15.0,22.0,64,0.00,,,-99.99,,2013-02-07 06:22:00,
2013-02-07 06:32:00,25.0,14.0,-100.00,SW,217,11.0,17.0,64,0.00,,,-99.99,,2013-02-07 06:32:00,
2013-02-07 06:43:00,25.0,13.0,-100.00,SW,222,13.0,19.0,61,0.00,,,-99.99,,2013-02-07 06:43:00,
2013-02-07 06:52:00,24.0,13.0,-100.00,SW,217,14.0,21.0,63,0.00,,,-99.99,,2013-02-07 06:52:00,
2013-02-07 07:01:00,24.0,13.0,-100.00,SSW,213,15.0,20.0,63,0.00,,,-99.99,,2013-02-07 07:01:00,
2013-02-07 07:11:00,24.0,13.0,-100.00,SSW,208,17.0,24.0,62,0.00,,,-99.99,,2013-02-07 07:11:00,
2013-02-07 07:22:00,24.0,13.0,-100.00,SSW,212,18.0,24.0,62,0.00,,,-99.99,,2013-02-07 07:22:00,
2013-02-07 07:32:00,24.0,11.0,-100.00,SSW,212,16.0,25.0,59,0.00,,,-99.99,,2013-02-07 07:32:00,
2013-02-07 07:41:00,23.0,11.0,-100.00,SW,219,18.0,25.0,58,0.00,,,-99.99,,2013-02-07 07:41:00,
2013-02-07 07:52:00,24.0,10.0,-100.00,SW,216,17.0,22.0,56,0.00,,,-99.99,,2013-02-07 07:52:00,
2013-02-07 08:01:00,24.0,10.0,-100.00,SW,216,19.0,27.0,54,0.00,,,-99.99,,2013-02-07 08:01:00,
2013-02-07 08:21:00,23.0,10.0,-100.00,SSW,213,20.0,28.0,55,0.00,,,-99.99,,2013-02-07 08:21:00,
2013-02-07 08:32:00,24.0,10.0,-100.00,SW,215,22.0,30.0,55,0.00,,,-99.99,,2013-02-07 08:32:00,
2013-02-07 08:42:00,23.0,10.0,-100.00,SW,215,20.0,28.0,57,0.00,,,-99.99,,2013-02-07 08:42:00,
2013-02-07 08:52:00,23.0,10.0,-100.00,SW,216,19.0,27.0,58,0.00,,,-99.99,,2013-02-07 08:52:00,
2013-02-07 09:01:00,23.0,10.0,-100.00,SW,220,16.0,22.0,58,0.00,,,-99.99,,2013-02-07 09:01:00,
2013-02-07 09:11:00,22.0,11.0,-100.00,SW,220,15.0,20.0,60,0.00,,,-99.99,,2013-02-07 09:11:00,
2013-02-07 09:21:00,22.0,11.0,-100.00,SW,223,16.0,22.0,61,0.00,,,-99.99,,2013-02-07 09:21:00,
2013-02-07 09:32:00,22.0,11.0,-100.00,SW,216,16.0,21.0,62,0.00,,,-99.99,,2013-02-07 09:32:00,
2013-02-07 09:41:00,22.0,11.0,-100.00,SW,216,14.0,19.0,63,0.00,,,-99.99,,2013-02-07 09:41:00,
2013-02-07 09:51:00,22.0,11.0,-100.00,SW,216,14.0,23.0,62,0.00,,,-99.99,,2013-02-07 09:51:00,
2013-02-07 10:01:00,22.0,11.0,-100.00,SSW,213,14.0,19.0,62,0.00,,,-99.99,,2013-02-07 10:01:00,
2013-02-07 10:11:00,22.0,11.0,-100.00,SSW,210,14.0,18.0,63,0.00,,,-99.99,,2013-02-07 10:11:00,
2013-02-07 10:22:00,22.0,11.0,-100.00,SSW,213,11.0,17.0,64,0.00,,,-99.99,,2013-02-07 10:22:00,
2013-02-07 10:32:00,22.0,11.0,-100.00,SW,216,10.0,15.0,64,0.00,,,-99.99,,2013-02-07 10:32:00,
2013-02-07 10:41:00,22.0,11.0,-100.00,SW,220,9.0,14.0,64,0.00,,,-99.99,,2013-02-07 10:41:00,
2013-02-07 10:51:00,22.0,11.0,-100.00,SSW,196,13.0,17.0,63,0.00,,,-99.99,,2013-02-07 10:51:00,
2013-02-07 11:01:00,21.0,11.0,-100.00,SSW,193,11.0,14.0,63,0.00,,,-99.99,,2013-02-07 11:01:00,
2013-02-07 11:11:00,22.0,11.0,-100.00,SSW,193,12.0,16.0,63,0.00,,,-99.99,,2013-02-07 11:11:00,
2013-02-07 11:22:00,22.0,11.0,-100.00,SSW,193,13.0,17.0,61,0.00,,,-99.99,,2013-02-07 11:22:00,
2013-02-07 11:32:00,22.0,10.0,-100.00,SSW,200,12.0,16.0,59,0.00,,,-99.99,,2013-02-07 11:32:00,
2013-02-07 11:44:00,22.0,9.0,-100.00,SSW,209,10.0,15.0,57,0.00,,,-99.99,,2013-02-07 11:44:00,
2013-02-07 11:52:00,23.0,8.0,-100.00,SSW,213,11.0,18.0,52,0.00,,,-99.99,,2013-02-07 11:52:00,
2013-02-07 12:02:00,21.0,8.0,-100.00,SW,217,9.0,13.0,55,0.00,,,-99.99,,2013-02-07 12:02:00,
2013-02-07 12:11:00,20.0,8.0,-100.00,WSW,248,9.0,12.0,59,0.00,,,-99.99,,2013-02-07 12:11:00,
2013-02-07 12:22:00,19.0,8.0,-100.00,West,264,9.0,14.0,60,0.00,,,-99.99,,2013-02-07 12:22:00,
2013-02-07 12:32:00,20.0,7.0,-100.00,West,263,7.0,11.0,57,0.00,,,-99.99,,2013-02-07 12:32:00,
2013-02-07 12:42:00,19.0,6.0,-100.00,West,277,6.0,11.0,56,0.00,,,-99.99,,2013-02-07 12:42:00,
2013-02-07 12:52:00,20.0,6.0,-100.00,WNW,302,6.0,9.0,53,0.00,,,-99.99,,2013-02-07 12:52:00,
2013-02-07 13:02:00,20.0,5.0,-100.00,NW,313,5.0,9.0,52,0.00,,,-99.99,,2013-02-07 13:02:00,
2013-02-07 13:12:00,19.0,5.0,-100.00,NW,315,3.0,7.0,52,0.00,,,-99.99,,2013-02-07 13:12:00,
2013-02-07 13:22:00,17.0,4.0,-100.00,NW,315,2.0,5.0,54,0.00,,,-99.99,,2013-02-07 13:22:00,
2013-02-07 13:32:00,18.0,4.0,-100.00,NE,45,3.0,6.0,53,0.00,,,-99.99,,2013-02-07 13:32:00,
2013-02-07 13:42:00,18.0,4.0,-100.00,ENE,68,3.0,5.0,53,0.00,,,-99.99,,2013-02-07 13:42:00,
2013-02-07 13:51:00,17.0,6.0,-100.00,East,96,4.0,10.0,60,0.00,,,-99.99,,2013-02-07 13:51:00,
2013-02-07 14:01:00,18.0,7.0,-100.00,East,97,6.0,10.0,61,0.00,,,-99.99,,2013-02-07 14:01:00,
2013-02-07 14:11:00,18.0,6.0,-100.00,East,89,5.0,9.0,60,0.00,,,-99.99,,2013-02-07 14:11:00,
2013-02-07 14:21:00,16.0,7.0,-100.00,ESE,102,4.0,9.0,65,0.00,,,-99.99,,2013-02-07 14:21:00,
2013-02-07 14:32:00,17.0,7.0,-100.00,ESE,107,9.0,14.0,63,0.00,,,-99.99,,2013-02-07 14:32:00,
2013-02-07 14:42:00,16.0,7.0,-100.00,ESE,106,9.0,12.0,69,0.00,,,-99.99,,2013-02-07 14:42:00,
2013-02-07 14:52:00,17.0,8.0,-100.00,East,100,7.0,12.0,67,0.00,,,-99.99,,2013-02-07 14:52:00,
2013-02-07 15:02:00,18.0,8.0,-100.00,ESE,102,7.0,11.0,64,0.00,,,-99.99,,2013-02-07 15:02:00,
2013-02-07 15:11:00,18.0,8.0,-100.00,East,95,6.0,11.0,64,0.00,,,-99.99,,2013-02-07 15:11:00,
2013-02-07 15:22:00,18.0,8.0,-100.00,SSE,167,4.0,10.0,62,0.00,,,-99.99,,2013-02-07 15:22:00,
2013-02-07 15:32:00,20.0,7.0,-100.00,SSE,157,1.0,4.0,58,0.00,,,-99.99,,2013-02-07 15:32:00,
2013-02-07 15:42:00,21.0,7.0,-100.00,SE,143,1.0,4.0,54,0.00,,,-99.99,,2013-02-07 15:42:00,
2013-02-07 15:52:00,22.0,8.0,-100.00,ESE,102,1.0,2.0,53,0.00,,,-99.99,,2013-02-07 15:52:00,
2013-02-07 16:01:00,22.0,8.0,-100.00,NE,51,2.0,5.0,54,0.00,,,-99.99,,2013-02-07 16:01:00,
2013-02-07 16:11:00,22.0,8.0,-100.00,NE,41,2.0,4.0,54,0.00,,,-99.99,,2013-02-07 16:11:00,
2013-02-07 16:21:00,23.0,8.0,-100.00,NNE,30,1.0,4.0,51,0.00,,,-99.99,,2013-02-07 16:21:00,
2013-02-07 16:32:00,24.0,7.0,-100.00,NNE,25,1.0,3.0,48,0.00,,,-99.99,,2013-02-07 16:32:00,
2013-02-07 16:41:00,24.0,8.0,-100.00,North,10,2.0,6.0,51,0.00,,,-99.99,,2013-02-07 16:41:00,
2013-02-07 16:52:00,24.0,8.0,-100.00,NW,322,3.0,4.0,52,0.00,,,-99.99,,2013-02-07 16:52:00,
2013-02-07 17:01:00,24.0,9.0,-100.00,NW,322,2.0,4.0,51,0.00,,,-99.99,,2013-02-07 17:01:00,
2013-02-07 17:11:00,24.0,9.0,-100.00,NW,323,3.0,5.0,51,0.00,,,-99.99,,2013-02-07 17:11:00,
2013-02-07 17:21:00,26.0,8.0,-100.00,NNW,329,2.0,5.0,46,0.00,,,-99.99,,2013-02-07 17:21:00,
2013-02-07 17:32:00,29.0,8.0,-100.00,NNW,335,1.0,4.0,41,0.00,,,-99.99,,2013-02-07 17:32:00,
2013-02-07 17:42:00,28.0,8.0,-100.00,North,353,3.0,6.0,42,0.00,,,-99.99,,2013-02-07 17:42:00,
2013-02-07 17:52:00,28.0,7.0,-100.00,NE,34,3.0,7.0,41,0.00,,,-99.99,,2013-02-07 17:52:00,
2013-02-07 18:01:00,27.0,6.0,-100.00,ENE,61,4.0,6.0,40,0.00,,,-99.99,,2013-02-07 18:01:00,
2013-02-07 18:11:00,28.0,5.0,-100.00,ENE,61,4.0,6.0,38,0.00,,,-99.99,,2013-02-07 18:11:00,
2013-02-07 18:23:00,30.0,4.0,-100.00,NE,54,3.0,6.0,33,0.00,,,-99.99,,2013-02-07 18:23:00,
2013-02-07 18:32:00,30.0,6.0,-100.00,ENE,59,3.0,9.0,35,0.00,,,-99.99,,2013-02-07 18:32:00,
2013-02-07 18:41:00,29.0,4.0,-100.00,NE,54,4.0,7.0,33,0.00,,,-99.99,,2013-02-07 18:41:00,
2013-02-07 18:51:00,30.0,3.0,-100.00,ENE,62,4.0,6.0,30,0.00,,,-99.99,,2013-02-07 18:51:00,
2013-02-07 19:01:00,31.0,3.0,-100.00,NNE,13,2.0,7.0,29,0.00,,,-99.99,,2013-02-07 19:01:00,
2013-02-07 19:11:00,31.0,3.0,-100.00,NE,45,4.0,9.0,29,0.00,,,-99.99,,2013-02-07 19:11:00,
2013-02-07 19:22:00,32.0,2.0,-100.00,NE,37,4.0,8.0,27,0.00,,,-99.99,,2013-02-07 19:22:00,
2013-02-07 19:32:00,33.0,2.0,-100.00,NNE,17,3.0,7.0,26,0.00,,,-99.99,,2013-02-07 19:32:00,
2013-02-07 19:41:00,35.0,1.0,-100.00,NNE,32,3.0,7.0,24,0.00,,,-99.99,,2013-02-07 19:41:00,
2013-02-07 19:51:00,33.0,1.0,-100.00,NE,42,4.0,7.0,25,0.00,,,-99.99,,2013-02-07 19:51:00,
2013-02-07 20:01:00,34.0,1.0,-100.00,ENE,73,4.0,9.0,24,0.00,,,-99.99,,2013-02-07 20:01:00,
2013-02-07 20:11:00,35.0,1.0,-100.00,NE,48,6.0,10.0,23,0.00,,,-99.99,,2013-02-07 20:11:00,
2013-02-07 20:21:00,35.0,1.0,-100.00,NE,54,4.0,7.0,23,0.00,,,-99.99,,2013-02-07 20:21:00,
2013-02-07 20:31:00,35.0,1.0,-100.00,ENE,59,4.0,7.0,23,0.00,,,-99.99,,2013-02-07 20:31:00,
2013-02-07 20:41:00,36.0,1.0,-100.00,ENE,65,4.0,8.0,23,0.00,,,-99.99,,2013-02-07 20:41:00,
2013-02-07 20:52:00,36.0,1.0,-100.00,ENE,65,4.0,6.0,23,0.00,,,-99.99,,2013-02-07 20:52:00,
2013-02-07 21:01:00,36.0,1.0,-100.00,NE,49,4.0,7.0,22,0.00,,,-99.99,,2013-02-07 21:01:00,
2013-02-07 21:11:00,37.0,2.0,-100.00,NE,35,2.0,6.0,22,0.00,,,-99.99,,2013-02-07 21:11:00,
2013-02-07 21:21:00,37.0,1.0,-100.00,NNE,25,4.0,7.0,22,0.00,,,-99.99,,2013-02-07 21:21:00,
2013-02-07 21:32:00,37.0,1.0,-100.00,NNE,14,4.0,7.0,22,0.00,,,-99.99,,2013-02-07 21:32:00,
2013-02-07 21:42:00,38.0,1.0,-100.00,NNE,30,4.0,7.0,21,0.00,,,-99.99,,2013-02-07 21:42:00,
2013-02-07 21:51:00,38.0,2.0,-100.00,NE,37,4.0,7.0,21,0.00,,,-99.99,,2013-02-07 21:51:00,
2013-02-07 22:02:00,38.0,2.0,-100.00,NNE,20,4.0,7.0,21,0.00,,,-99.99,,2013-02-07 22:02:00,
2013-02-07 22:11:00,38.0,2.0,-100.00,NNE,20,4.0,8.0,21,0.00,,,-99.99,,2013-02-07 22:11:00,
2013-02-07 22:21:00,38.0,2.0,-100.00,North,1,5.0,9.0,21,0.00,,,-99.99,,2013-02-07 22:21:00,
2013-02-07 22:32:00,38.0,2.0,-100.00,NNE,18,6.0,9.0,21,0.00,,,-99.99,,2013-02-07 22:32:00,
2013-02-07 22:42:00,38.0,1.0,-100.00,NNE,16,5.0,9.0,20,0.00,,,-99.99,,2013-02-07 22:42:00,
2013-02-07 22:51:00,38.0,1.0,-100.00,NNE,14,7.0,11.0,20,0.00,,,-99.99,,2013-02-07 22:51:00,
2013-02-07 23:01:00,39.0,1.0,-100.00,NNE,23,6.0,10.0,19,0.00,,,-99.99,,2013-02-07 23:01:00,
2013-02-07 23:11:00,39.0,-2.0,-100.00,North,11,6.0,10.0,17,0.00,,,-99.99,,2013-02-07 23:11:00,
2013-02-07 23:21:00,39.0,-3.0,-100.00,NNW,343,4.0,9.0,16,0.00,,,-99.99,,2013-02-07 23:21:00,
2013-02-07 23:32:00,39.0,0.0,-100.00,North,352,4.0,7.0,19,0.00,,,-99.99,,2013-02-07 23:32:00,
2013-02-07 23:41:00,38.0,0.0,-100.00,North,10,6.0,7.0,20,0.00,,,-99.99,,2013-02-07 23:41:00,
2013-02-07 23:52:00,37.0,0.0,-100.00,North,1,7.0,9.0,21,0.00,,,-99.99,,2013-02-07 23:52:00,